Location: Gorze? G�rny
(49.8500°N, 19.5000°E)
Time: 03:49:20
(UTC+00:00)

Cosmos 1805 - Pass Details

Date: 13 May 2021
Orbit: 523 x 531 km, 82.5° (Epoch: 23 June)

Event Time Altitude Azimuth Distance (km) Brightness Sun altitude
Rises 22:10:42 0° 356° (N) 2,681 8.4 -21.3°
Reaches altitude 10° 22:12:58 10° 4° (N) 1,785 7.0 -21.3°
Maximum altitude 22:16:39 39° 74° (ENE) 811 4.2 -21.4°
Enters shadow 22:17:11 37° 95° (E) 841 4.1 -21.4°
